COSMOS 2251 DEB, 36061

Orbit data source: Space-Track

COSMOS 2251 DEB, 36061 is space debris in LEO originally from a launch on Wed, 16 Jun 1993 UTC launched from the Plesetsk Missile And Space Complex (PKMTR). The debris from Iridium 33, an American commercial communications satellite, has been tracked extensively since its accidental collision with the defunct Russian satellite Cosmos 2251 in 2009. This event, occurring at high speed in low Earth orbit (LEO), generated thousands of pieces of space debris, significantly increasing the risk of further collisions. The Iridium 33 debris cloud has impacted space traffic management and orbital debris mitigation strategies, making it a subject of ongoing study in space situational awareness.

Loading next visibility...
Identifier
36061, 1993-036AXY
Orbit
LEO
Country
Flag of CISCIS
Related business
Manufacturer
Unknown
Mission
Spacecraft
Bus & Motor
Unknown
Mass
Unknown
Launch date (UTC)
1993-06-16 (33 years ago)
Launch vehicle
Unknown
Launch site
Plesetsk Missile And Space Complex (PKMTR)
Object type
Payload
Rocket body
Debris
Shape & HBR
Unknown shape, 0.1 m
Radar Cross Section
Small (<0.1 m²)

Expand to show TLE details & history
Last TLE update: 4 days ago

TLE from 4 days ago
0 COSMOS 2251 DEB
1 36061U 93036AXY 26205.56003828  .00000456  00000-0  17122-3 0  9995
2 36061  74.0251 309.9552 0039253 343.7005  16.2881 14.34054233683129
Epoch: 2026-07-24T13:26Z
TLE epoch observation values (Epoch: 2026-07-24T13:26:27.307Z)
Latitude
-0.00001°
Longitude
166.0565°
Altitude
753.86 km
Speed
7.492 km/s
True Right ascension
20h 39m 49s
True Declination
0° 00' 00"
Sunlit
Object was in full shadow at epoch
Visualization orbit readout
Latitude
Unknown
Longitude
Unknown
Altitude
Unknown
Speed
Unknown
Apparent Right ascension
Unknown
Apparent Declination
Unknown
Sunlit
N/A
Visualization observer readout
Local Sidereal Time
20:28:39
Azimuth
Unknown
Elevation
Unknown
Doppler factor
Unknown
Orbital elements
Apogee altitude
803.92 km
Perigee altitude
747.757 km
Semi-major axis
7,153.975 km
Eccentricity
0.00393
Inclination
74.0251°
RAAN
309.9552°
Arg. of periapsis
343.7005°
True anomaly
16.41485°
Mean anomaly
16.2881°
Eccentric anomaly
16.35142°
Mean motion
3.58692 °/min
Orbital period
100.36 mins
BSTAR
0.00017122
Loading maneuver chart data...
Computing Atmospheric mass density...

Documentation

Showing up to 5 results
|